Narsarsuaq, Greenland

2:04 AM WGT on February 11, 2016 (GMT -0300)
Narsarsuaq

Weather History for BGBW - February, 2014

Change the Weather History Date:

Monday, February 24, 2014

  Actual Average Record
Temperature  
Mean Temperature 19 °F -  
Max Temperature 26 °F 31 °F 46 °F (2005)
Min Temperature 11 °F 16 °F -5 °F (2015)
Degree Days  
Heating Degree Days 46    
Moisture  
Dew Point 9 °F    
Average Humidity 66    
Maximum Humidity 100    
Minimum Humidity 21    
Precipitation  
Precipitation 0.00 in 0.05 in - ()
Sea Level Pressure  
Sea Level Pressure 29.34 in    
Wind  
Wind Speed 3 mph ()    
Max Wind Speed 12 mph    
Max Gust Speed -    
Visibility 8.8 miles    
Events Snow    
Averages and records for this station are not official NWS values.
T = Trace of Precipitation, MM = Missing Value Source: Averaged Metar Reports

Daily Weather History Graph

Daily Weather History Graph

Search for Another Location

Airport or City:

Trip Planner

Search our weather history database for the weather conditions in past years. The results will help you decide how hot, cold, wet, or windy it might be!

Date:

Astronomy

Feb. 24, 2014 Rise Set
Actual Time 7:17 AM WGT 5:13 PM WGT
Civil Twilight 6:33 AM WGT 5:57 PM WGT
Nautical Twilight 5:43 AM WGT 6:47 PM WGT
Astronomical Twilight 4:53 AM WGT 7:37 PM WGT
Moon 4:06 AM WGT (2/24) 11:09 AM WGT (2/24)
Length of Visible Light 11h 23m
Length of Day
9h 55m
Waning Crescent, 29% of the Moon is Illuminated
Feb 24
Waning Crescent
Mar 1
New
Mar 8
First Quarter
Mar 16
Full
Mar 23
Last Quarter

Hourly Weather History & Observations

Time (WGT) Temp. Windchill Dew Point Humidity Pressure Visibility Wind Dir Wind Speed Gust Speed Precip Events Conditions
12:00 AM 20 °F - 16 °F 78% 29.22 in 28 mi West 4.6 mph - -   Overcast
1:00 AM 19 °F - 16 °F 83% 29.23 in 25 mi SW 6.9 mph - -   Partly Cloudy
2:00 AM 14 °F - 9 °F 70% 29.23 in 22 mi West 2.3 mph - -   Scattered Clouds
3:00 AM 15 °F - 11 °F 79% 29.23 in 25 mi WSW 3.5 mph - -   Partly Cloudy
4:00 AM 14 °F - 9 °F 70% 29.25 in 28 mi WNW 2.3 mph - -   Scattered Clouds
4:50 AM 14.0 °F 6.5 °F 10.4 °F 86% 29.24 in 6.2 mi SW 4.6 mph - N/A   Mostly Cloudy
5:00 AM 16 °F - 12 °F 79% 29.26 in 28 mi WSW 4.6 mph - -   Scattered Clouds
5:50 AM 12.2 °F 4.3 °F 8.6 °F 85% 29.27 in 6.2 mi WSW 4.6 mph - N/A   Mostly Cloudy
6:00 AM 12 °F - 8 °F 78% 29.29 in 28 mi NNE 2.3 mph - -   Overcast
6:50 AM 15.8 °F - 12.2 °F 86% 29.30 in 6.2 mi SSW 2.3 mph - N/A   Mostly Cloudy
7:00 AM 16 °F - 12 °F 78% 29.31 in 2 mi SSW 1.2 mph - -   Overcast
7:50 AM 17.6 °F - 14.0 °F 86% 29.30 in 6.2 mi NE 2.3 mph - N/A   Mostly Cloudy
8:00 AM 18 °F - 15 °F 80% 29.33 in 28 mi ENE 3.5 mph - -   Overcast
8:50 AM 15.8 °F 10.2 °F 15.8 °F 100% 29.33 in 6.2 mi ENE 3.5 mph - N/A   Mostly Cloudy
9:00 AM 17 °F - 17 °F 99% 29.33 in 25 mi ENE 3.5 mph - -   Overcast
9:50 AM 15.8 °F 8.6 °F 12.2 °F 86% 29.33 in 6.2 mi WSW 4.6 mph - N/A   Mostly Cloudy
10:00 AM 18 °F - 13 °F 75% 29.34 in 22 mi WSW 2.3 mph - -   Scattered Clouds
10:50 AM 17.6 °F 12.3 °F 14.0 °F 86% 29.33 in 6.2 mi WSW 3.5 mph - N/A   Mostly Cloudy
11:00 AM 19 °F - 13 °F 70% 29.35 in 10 mi WSW 2.3 mph - -   Scattered Clouds
11:50 AM 24.8 °F - 12.2 °F 59% 29.33 in 6.2 mi Calm Calm - N/A   Scattered Clouds
12:00 PM 25 °F - 14 °F 51% 29.35 in 19 mi WSW 1.2 mph - -   Partly Cloudy
12:50 PM 21.2 °F 16.4 °F 12.2 °F 68% 29.33 in 6.2 mi WSW 3.5 mph - N/A   Scattered Clouds
1:00 PM 25 °F - 11 °F 42% 29.36 in 16 mi WSW 1.2 mph - -   Mostly Cloudy
1:50 PM 24.8 °F - 12.2 °F 59% 29.36 in 6.2 mi Calm Calm - N/A   Scattered Clouds
2:00 PM 23 °F - 10 °F 45% 29.36 in 16 mi Calm Calm - -   Partly Cloudy
2:50 PM 21.2 °F 16.4 °F 10.4 °F 63% 29.36 in 6.2 mi NE 3.5 mph - N/A   Partly Cloudy
3:00 PM 21 °F - 8 °F 44% 29.38 in 16 mi NE 3.5 mph - -   Scattered Clouds
3:50 PM 17.6 °F 12.3 °F 8.6 °F 68% 29.39 in 6.2 mi WSW 3.5 mph - N/A   Partly Cloudy
4:00 PM 18 °F - 8 °F 51% 29.40 in 17 mi West 2.3 mph - -  
4:50 PM 17.6 °F - 6.8 °F 63% 29.39 in 6.2 mi West 1.2 mph - N/A   Partly Cloudy
5:00 PM 18 °F - 5 °F 43% 29.41 in 31 mi West 1.2 mph - -  
6:00 PM 12 °F - 2 °F 52% 29.42 in 31 mi East 3.5 mph - -  
7:00 PM 12 °F - 3 °F 55% 29.43 in 31 mi SSE 2.3 mph - -  
8:00 PM 12 °F - 1 °F 48% 29.44 in 31 mi WNW 3.5 mph - -  
9:00 PM 17 °F - -5 °F 22% 29.44 in 28 mi ENE 11.5 mph - -  
10:00 PM 16 °F - -7 °F 21% 29.45 in 28 mi NE 11.5 mph - - Snow Snow
11:00 PM 11 °F - -6 °F 29% 29.47 in 28 mi WSW 5.8 mph - -   Clear